| time (UTC) | temp F | wind direction | speed MPH | gust MPH | rain 1hr in | rain 24hr in | rain mn in | humidity % | barometer mb |
| 20260510070035 | 61 | 141 | 16.0 | 26.0 | 0.11 | 0.13 | 0.11 | 82 | 1012.1 |
| 20260510064548 | 61 | 142 | 18.0 | 25.0 | 0.11 | 0.25 | 0.11 | 84 | 1011.7 |
| 20260510063034 | 60 | 144 | 15.0 | 22.0 | 0.10 | 0.24 | 0.10 | 89 | 1012.2 |
| 20260510061533 | 60 | 137 | 10.0 | 25.0 | 0.07 | 0.21 | 0.07 | 91 | 1012.3 |
| 20260510060026 | 63 | 149 | 5.0 | 10.0 | 0.00 | 0.14 | 0.00 | 86 | 1011.2 |
| 20260510054527 | 63 | 153 | 3.0 | 4.0 | 0.00 | 0.21 | 0.00 | 85 | 1010.3 |
| 20260510053038 | 63 | 152 | 3.0 | 4.0 | 0.00 | 0.21 | 0.00 | 86 | 1010.3 |
| 20260510051528 | 63 | 150 | 2.0 | 5.0 | 0.00 | 0.21 | 0.00 | 85 | 1010.4 |
| 20260510050019 | 63 | 153 | 4.0 | 7.0 | 0.00 | 0.21 | 0.00 | 85 | 1010.4 |
| 20260510044518 | 63 | 155 | 3.0 | 5.0 | 0.00 | 0.28 | 0.21 | 85 | 1010.4 |
| 20260510043018 | 61 | 152 | 5.0 | 7.0 | 0.00 | 0.28 | 0.21 | 88 | 1010.5 |
| 20260510041518 | 62 | 153 | 2.0 | 3.0 | 0.00 | 0.28 | 0.21 | 87 | 1010.5 |
| 20260510040017 | 63 | 153 | 3.0 | 0.0 | 0.00 | 0.00 | 0.21 | 85 | 1010.5 |
| 20260510034517 | 63 | 152 | 3.0 | 5.0 | 0.00 | 0.30 | 0.21 | 86 | 1010.6 |
| 20260510033016 | 61 | 151 | 0.0 | 0.0 | 0.00 | 0.30 | 0.21 | 87 | 1010.5 |
| 20260510031523 | 61 | 152 | 0.0 | 0.0 | 0.00 | 0.30 | 0.21 | 87 | 1010.5 |
| 20260510030015 | 62 | 152 | 0.0 | 0.0 | 0.00 | 0.30 | 0.21 | 82 | 1010.5 |
| 20260510024514 | 62 | 153 | 0.0 | 0.0 | 0.00 | 0.49 | 0.21 | 80 | 1010.5 |
| 20260510023012 | 63 | 151 | 0.0 | 0.0 | 0.00 | 0.49 | 0.21 | 80 | 1010.3 |
| 20260510021516 | 64 | 151 | 0.0 | 0.0 | 0.00 | 0.49 | 0.21 | 77 | 1010.0 |
| 20260510020012 | 64 | 151 | 0.0 | 0.0 | 0.00 | 0.56 | 0.21 | 75 | 1009.7 |
| 20260510014513 | 65 | 151 | 0.0 | 0.0 | 0.00 | 0.56 | 0.21 | 73 | 1009.4 |
| 20260510013010 | 67 | 150 | 0.0 | 0.0 | 0.00 | 0.56 | 0.21 | 70 | 1009.3 |
| 20260510011510 | 70 | 150 | 0.0 | 0.0 | 0.00 | 0.56 | 0.21 | 65 | 1009.0 |
| 20260510010009 | 71 | 153 | 0.0 | 0.0 | 0.00 | 0.60 | 0.21 | 53 | 1008.8 |
| 20260510004509 | 72 | 147 | 0.0 | 0.0 | 0.00 | 0.60 | 0.21 | 53 | 1008.7 |
| 20260510003008 | 73 | 152 | 0.0 | 0.0 | 0.00 | 0.60 | 0.21 | 53 | 1008.5 |
| 20260510001508 | 74 | 148 | 0.0 | 0.0 | 0.00 | 0.60 | 0.21 | 54 | 1008.4 |
| 20260510000008 | 75 | 152 | 0.0 | 7.0 | 0.00 | 0.67 | 0.21 | 58 | 1008.2 |
| 20260509234506 | 75 | 153 | 5.0 | 9.0 | 0.00 | 0.67 | 0.21 | 59 | 1008.2 |
| 20260509233006 | 75 | 150 | 7.0 | 11.0 | 0.00 | 0.67 | 0.21 | 57 | 1008.1 |
| 20260509231507 | 75 | 150 | 6.0 | 11.0 | 0.00 | 0.67 | 0.21 | 58 | 1008.0 |
| 20260509230004 | 75 | 150 | 2.0 | 10.0 | 0.00 | 0.67 | 0.21 | 57 | 1008.0 |
| 20260509224503 | 75 | 153 | 6.0 | 12.0 | 0.00 | 0.67 | 0.21 | 58 | 1008.0 |
| 20260509223002 | 75 | 148 | 3.0 | 12.0 | 0.00 | 0.67 | 0.21 | 56 | 1007.9 |
| 20260509221626 | 75 | 151 | 6.0 | 11.0 | 0.00 | 0.67 | 0.21 | 56 | 1007.9 |
| 20260509220101 | 75 | 150 | 7.0 | 16.0 | 0.00 | 0.67 | 0.21 | 55 | 1007.8 |
| 20260509214605 | 75 | 152 | 7.0 | 13.0 | 0.00 | 0.67 | 0.21 | 53 | 1008.0 |
| 20260509213059 | 75 | 153 | 0.0 | 12.0 | 0.00 | 0.67 | 0.21 | 55 | 1007.9 |
| 20260509211600 | 75 | 150 | 10.0 | 15.0 | 0.00 | 0.67 | 0.21 | 56 | 1008.0 |
| 20260509210057 | 75 | 148 | 9.0 | 15.0 | 0.00 | 0.67 | 0.21 | 55 | 1008.1 |
| 20260509204551 | 74 | 149 | 8.0 | 15.0 | 0.00 | 0.67 | 0.21 | 65 | 1008.1 |
| 20260509203049 | 74 | 148 | 9.0 | 18.0 | 0.00 | 0.67 | 0.21 | 62 | 1008.1 |
| 20260509201548 | 74 | 151 | 12.0 | 16.0 | 0.00 | 0.67 | 0.21 | 59 | 1008.1 |
| 20260509200049 | 73 | 148 | 11.0 | 18.0 | 0.00 | 0.67 | 0.21 | 62 | 1008.4 |
| 20260509194551 | 73 | 153 | 7.0 | 14.0 | 0.00 | 0.67 | 0.21 | 68 | 1008.5 |
| 20260509193041 | 72 | 155 | 10.0 | 15.0 | 0.00 | 0.67 | 0.21 | 67 | 1008.4 |
| 20260509191539 | 71 | 155 | 8.0 | 15.0 | 0.00 | 0.67 | 0.21 | 69 | 1008.5 |
| 20260509190036 | 71 | 152 | 8.0 | 15.0 | 0.00 | 0.67 | 0.21 | 71 | 1008.6 |
| 20260509184537 | 70 | 154 | 9.0 | 15.0 | 0.00 | 0.67 | 0.21 | 71 | 1008.6 |
| 20260509183039 | 69 | 153 | 7.0 | 14.0 | 0.00 | 0.67 | 0.21 | 75 | 1008.6 |
| 20260509181526 | 68 | 156 | 10.0 | 13.0 | 0.00 | 0.67 | 0.21 | 75 | 1008.9 |
| 20260509180024 | 68 | 156 | 10.0 | 0.0 | 0.00 | 0.00 | 0.21 | 80 | 1009.1 |
| 20260509174538 | 66 | 155 | 9.0 | 14.0 | 0.00 | 0.67 | 0.21 | 79 | 1009.4 |
| 20260509173019 | 66 | 156 | 8.0 | 14.0 | 0.00 | 0.67 | 0.21 | 78 | 1009.5 |
| 20260509171515 | 65 | 153 | 7.0 | 14.0 | 0.00 | 0.67 | 0.21 | 81 | 1009.8 |
| 20260509170014 | 64 | 155 | 7.0 | 13.0 | 0.00 | 0.67 | 0.21 | 83 | 1009.9 |
| 20260509164511 | 63 | 151 | 8.0 | 13.0 | 0.00 | 0.67 | 0.21 | 84 | 1010.1 |
| 20260509163009 | 62 | 153 | 8.0 | 12.0 | 0.00 | 0.67 | 0.21 | 84 | 1010.2 |
| 20260509161506 | 62 | 155 | 9.0 | 14.0 | 0.00 | 0.67 | 0.21 | 85 | 1010.2 |
| 20260509160002 | 61 | 154 | 7.0 | 12.0 | 0.00 | 0.67 | 0.21 | 88 | 1010.1 |
| 20260509154606 | 60 | 155 | 6.0 | 10.0 | 0.00 | 0.67 | 0.21 | 89 | 1009.9 |
| 20260509153057 | 59 | 153 | 5.0 | 11.0 | 0.00 | 0.67 | 0.21 | 88 | 1009.8 |
| 20260509151557 | 58 | 153 | 6.0 | 10.0 | 0.00 | 0.67 | 0.21 | 89 | 1009.7 |
| 20260509150056 | 57 | 154 | 6.0 | 11.0 | 0.00 | 0.67 | 0.21 | 90 | 1009.6 |
| 20260509144552 | 58 | 155 | 8.0 | 12.0 | 0.00 | 0.67 | 0.21 | 90 | 1009.4 |
| 20260509143058 | 58 | 151 | 7.0 | 12.0 | 0.00 | 0.67 | 0.21 | 90 | 1009.6 |
| 20260509141558 | 58 | 155 | 8.0 | 12.0 | 0.00 | 0.67 | 0.21 | 91 | 1009.6 |
| 20260509140059 | 58 | 151 | 7.0 | 13.0 | 0.00 | 0.67 | 0.21 | 92 | 1009.5 |
| 20260509134546 | 58 | 154 | 6.0 | 11.0 | 0.00 | 0.67 | 0.21 | 93 | 1009.3 |
| 20260509133043 | 57 | 154 | 4.0 | 9.0 | 0.00 | 0.67 | 0.21 | 94 | 1009.3 |
| 20260509131542 | 56 | 154 | 6.0 | 11.0 | 0.00 | 0.67 | 0.21 | 95 | 1009.3 |
| 20260509130040 | 56 | 155 | 7.0 | 12.0 | 0.00 | 0.67 | 0.21 | 95 | 1009.2 |
| 20260509124539 | 56 | 153 | 4.0 | 7.0 | 0.00 | 0.67 | 0.21 | 96 | 1009.2 |
| 20260509123046 | 55 | 156 | 4.0 | 9.0 | 0.00 | 0.67 | 0.21 | 96 | 1009.2 |
| 20260509121537 | 55 | 153 | 5.0 | 8.0 | 0.00 | 0.67 | 0.21 | 96 | 1009.0 |
| 20260509120038 | 55 | 153 | 4.0 | 8.0 | 0.00 | 0.67 | 0.21 | 96 | 1009.0 |
| 20260509114536 | 54 | 153 | 4.0 | 8.0 | 0.00 | 0.67 | 0.21 | 96 | 1008.8 |
| 20260509113034 | 0 | 0.0 | 0.0 | 0.00 | 0.67 | 0.21 | 1008.9 | ||
| 20260509111530 | 0 | 0.0 | 0.0 | 0.00 | 0.67 | 0.21 | 1008.7 | ||
| 20260509110026 | 0 | 0.0 | 0.0 | 0.00 | 0.67 | 0.21 | 1008.3 | ||
| 20260509104521 | 0 | 0.0 | 0.0 | 0.00 | 0.67 | 0.21 | 1008.2 | ||
| 20260509103016 | 0 | 0.0 | 0.0 | 0.00 | 0.67 | 0.21 | 1008.2 | ||
| 20260509101512 | 0 | 0.0 | 0.0 | 0.00 | 0.67 | 0.21 | 1008.1 | ||
| 20260509100008 | 0 | 0.0 | 0.0 | 0.00 | 0.67 | 0.21 | 1008.0 | ||
| 20260509094505 | 0 | 0.0 | 0.0 | 0.00 | 0.67 | 0.21 | 1007.9 | ||
| 20260509093101 | 55 | 193 | 0.0 | 0.0 | 0.00 | 0.67 | 0.21 | 96 | 1007.8 |
| 20260509091600 | 54 | 150 | 0.0 | 0.0 | 0.00 | 0.67 | 0.21 | 96 | 1007.7 |
| 20260509090101 | 54 | 150 | 1.0 | 3.0 | 0.00 | 0.67 | 0.21 | 96 | 1007.6 |
| 20260509084557 | 54 | 151 | 3.0 | 5.0 | 0.00 | 0.67 | 0.21 | 96 | 1007.4 |
| 20260509083101 | 55 | 151 | 0.0 | 3.0 | 0.00 | 0.67 | 0.21 | 96 | 1007.2 |
| 20260509081554 | 55 | 151 | 2.0 | 5.0 | 0.01 | 0.67 | 0.21 | 96 | 1007.2 |
| 20260509080057 | 55 | 146 | 0.0 | 5.0 | 0.02 | 0.67 | 0.21 | 96 | 1007.2 |
| 20260509074603 | 55 | 155 | 0.0 | 3.0 | 0.03 | 0.67 | 0.21 | 97 | 1007.4 |
| 20260509073047 | 55 | 156 | 2.0 | 4.0 | 0.05 | 0.67 | 0.21 | 97 | 1007.6 |
| 20260509071549 | 55 | 155 | 4.0 | 5.0 | 0.08 | 0.66 | 0.20 | 97 | 1008.3 |